Location: Schommer Observatory
(40.5200°N, 74.4500°W)
Time: 04:26:23
(UTC-04:00)

ISS - Pass Details

Date: 17 May 2018
Orbit: 402 x 407 km, 51.6° (Epoch: 23 May)

Event Time Altitude Azimuth Distance (km) Brightness Sun altitude
Exits shadow 02:49:32 - 315° (NW) 1,852 -0.3 -24.4°
Reaches altitude 10° 02:51:15 10° 337° (NNW) 1,458 -0.6 -24.2°
Maximum altitude 02:52:33 12° 1° (N) 1,353 -0.4 -24.1°
Drops below altitude 10° 02:53:51 10° 24° (NNE) 1,458 0.1 -24.0°
Sets 02:57:03 0° 58° (ENE) 2,318 1.0 -23.7°
